Dades meteomassalio
Diari Summary for Octubre 13, 2018 Units:  Metric    English   Both
« Previous Day
Next Day »
Diari Semanal Mensual Anual Personalitzat
  Maxima: Minima: Mijana:
Temperatura: -17.8 °C -11.9 °C -7.9 °C
Rosada: -17.8 °C -13.3 °C -10.8 °C
Humitat: Humidity % 47 % 73 %
Velocitat del vent: 0 km/h 0 km/h 9.8 km/h
Racha vent: 0 km/h - -
Vent:- - SSE
Pressio: 0 hPa 34357.7 hPa -
Pluja: 0 mm    
Historical Graphs
 
 
Tabular Data for Octubre 13, 2018
Time Temperature Dew Point Pressure Wind Wind Speed Wind Gust Humidity Rainfall Rate (Hourly) solar Conditions
-17.8 °C -17.8 °C 0 hPa Calm     Humidity % 0 mm SolarRadiationWatts/m^2 W/m2 Conditions
00:04 -9.4 °C -10.9 °C 34632 hPa Calm     84 % 0 mm 0.00 W/m2 CLR
00:09 -9.4 °C -10.9 °C 34632 hPa Calm     84 % 0 mm 0.00 W/m2 CLR
00:14 -9.4 °C -10.8 °C 34628.6 hPa Calm     85 % 0 mm 0.00 W/m2 CLR
00:19 -9.4 °C -10.8 °C 34625.2 hPa Calm     85 % 0 mm 0.00 W/m2 CLR
00:24 -9.4 °C -10.8 °C 34625.2 hPa Calm     85 % 0 mm 0.00 W/m2 CLR
00:29 -9.8 °C -11.2 °C 34625.2 hPa Calm     85 % 0 mm 0.00 W/m2 CLR
00:34 -9.8 °C -11.2 °C 34621.9 hPa Calm     84 % 0 mm 0.00 W/m2 CLR
00:39 -9.8 °C -11.2 °C 34625.2 hPa Calm     84 % 0 mm 0.00 W/m2 CLR
00:44 -9.8 °C -11.2 °C 34625.2 hPa Calm     85 % 0 mm 0.00 W/m2 CLR
00:49 -9.8 °C -11.2 °C 34621.9 hPa Calm     85 % 0 mm 0.00 W/m2 CLR
00:54 -9.8 °C -11.2 °C 34621.9 hPa Calm     84 % 0 mm 0.00 W/m2 CLR
00:59 -9.8 °C -11.1 °C 34621.9 hPa Calm     86 % 0 mm 0.00 W/m2 CLR
01:04 -9.8 °C -10.9 °C 34621.9 hPa Calm     87 % 0 mm 0.00 W/m2 CLR
01:09 -9.8 °C -11.1 °C 34618.5 hPa Calm     86 % 0 mm 0.00 W/m2 CLR
01:14 -10.1 °C -11.3 °C 34615.1 hPa Calm     86 % 0 mm 0.00 W/m2 CLR
01:19 -10.1 °C -11.3 °C 34618.5 hPa Calm     86 % 0 mm 0.00 W/m2 CLR
01:24 -10.1 °C -11.2 °C 34615.1 hPa Calm     87 % 0 mm 0.00 W/m2 CLR
01:29 -10.1 °C -11.2 °C 34615.1 hPa Calm     87 % 0 mm 0.00 W/m2 CLR
01:34 -10.1 °C -11.2 °C 34615.1 hPa Calm     87 % 0 mm 0.00 W/m2 CLR
01:39 -10.1 °C -11.3 °C 34615.1 hPa Calm     86 % 0 mm 0.00 W/m2 CLR
01:44 -10.4 °C -11.6 °C 34618.5 hPa Calm     87 % 0 mm 0.00 W/m2 CLR
01:49 -10.1 °C -11.2 °C 34618.5 hPa Calm     87 % 0 mm 0.00 W/m2 CLR
01:54 -10.4 °C -11.4 °C 34618.5 hPa Calm     88 % 0 mm 0.00 W/m2 CLR
01:59 -10.4 °C -11.4 °C 34615.1 hPa Calm     88 % 0 mm 0.00 W/m2 CLR
02:04 -10.4 °C -11.6 °C 34615.1 hPa Calm     87 % 0 mm 0.00 W/m2 CLR
02:09 -10.1 °C -11.2 °C 34611.7 hPa Calm     87 % 0 mm 0.00 W/m2 CLR
02:14 -10.1 °C -11.2 °C 34615.1 hPa Calm     87 % 0 mm 0.00 W/m2 CLR
02:19 -10.1 °C -11.2 °C 34611.7 hPa Calm     87 % 0 mm 0.00 W/m2 CLR
02:24 -10.4 °C -11.6 °C 34608.3 hPa Calm     87 % 0 mm 0.00 W/m2 CLR
02:29 -10.4 °C -11.6 °C 34608.3 hPa Calm     87 % 0 mm 0.00 W/m2 CLR
02:34 -10.4 °C -11.6 °C 34608.3 hPa Calm     87 % 0 mm 0.00 W/m2 CLR
02:39 -10.4 °C -11.6 °C 34611.7 hPa Calm     87 % 0 mm 0.00 W/m2 CLR
02:44 -10.4 °C -11.6 °C 34611.7 hPa Calm     87 % 0 mm 0.00 W/m2 CLR
02:49 -10.4 °C -11.6 °C 34615.1 hPa Calm     87 % 0 mm 0.00 W/m2 CLR
02:54 -10.4 °C -11.6 °C 34611.7 hPa Calm     87 % 0 mm 0.00 W/m2 CLR
02:59 -10.4 °C -11.6 °C 34611.7 hPa Calm     87 % 0 mm 0.00 W/m2 CLR
03:04 -10.4 °C -11.6 °C 34615.1 hPa Calm     87 % 0 mm 0.00 W/m2 CLR
03:09 -10.4 °C -11.6 °C 34611.7 hPa Calm     87 % 0 mm 0.00 W/m2 CLR
03:14 -10.4 °C -11.4 °C 34611.7 hPa Calm     88 % 0 mm 0.00 W/m2 CLR
03:19 -10.4 °C -11.4 °C 34608.3 hPa Calm     88 % 0 mm 0.00 W/m2 CLR
03:24 -10.4 °C -11.3 °C 34604.9 hPa Calm     89 % 0 mm 0.00 W/m2 CLR
03:29 -10.4 °C -11.3 °C 34604.9 hPa Calm     89 % 0 mm 0.00 W/m2 CLR
03:34 -10.7 °C -11.8 °C 34608.3 hPa Calm     88 % 0 mm 0.00 W/m2 CLR
03:39 -10.7 °C -11.8 °C 34604.9 hPa Calm     88 % 0 mm 0.00 W/m2 CLR
03:44 -10.7 °C -11.8 °C 34601.5 hPa Calm     88 % 0 mm 0.00 W/m2 CLR
03:49 -10.7 °C -11.7 °C 34598.1 hPa Calm     89 % 0 mm 0.00 W/m2 CLR
03:54 -10.7 °C -11.7 °C 34598.1 hPa Calm     89 % 0 mm 0.00 W/m2 CLR
03:59 -10.7 °C -11.6 °C 34598.1 hPa Calm     90 % 0 mm 0.00 W/m2 CLR
04:04 -10.7 °C -11.6 °C 34601.5 hPa Calm     90 % 0 mm 0.00 W/m2 CLR
04:09 -11 °C -11.9 °C 34598.1 hPa Calm     90 % 0 mm 0.00 W/m2 CLR
04:14 -11 °C -12 °C 34598.1 hPa Calm     89 % 0 mm 0.00 W/m2 CLR
04:19 -11 °C -12 °C 34598.1 hPa Calm     89 % 0 mm 0.00 W/m2 CLR
04:24 -10.7 °C -11.7 °C 34598.1 hPa Calm     89 % 0 mm 0.00 W/m2 CLR
04:29 -10.7 °C -11.6 °C 34598.1 hPa Calm     90 % 0 mm 0.00 W/m2 CLR
04:34 -10.7 °C -11.7 °C 34598.1 hPa Calm     89 % 0 mm 0.00 W/m2 CLR
04:39 -11 °C -12 °C 34598.1 hPa Calm     89 % 0 mm 0.00 W/m2 CLR
04:44 -11 °C -12 °C 34598.1 hPa Calm     89 % 0 mm 0.00 W/m2 CLR
04:49 -11 °C -12 °C 34594.8 hPa Calm     89 % 0 mm 0.00 W/m2 CLR
04:54 -11 °C -12 °C 34594.8 hPa Calm     89 % 0 mm 0.00 W/m2 CLR
04:59 -11.3 °C -12.3 °C 34591.4 hPa Calm     89 % 0 mm 0.00 W/m2 CLR
05:04 -11.3 °C -12.3 °C 34591.4 hPa Calm     89 % 0 mm 0.00 W/m2 CLR
05:09 -11.3 °C -12.2 °C 34591.4 hPa Calm     90 % 0 mm 0.00 W/m2 CLR
05:14 -11.3 °C -12.2 °C 34591.4 hPa Calm     90 % 0 mm 0.00 W/m2 CLR
05:19 -11.3 °C -12.2 °C 34588 hPa Calm     90 % 0 mm 0.00 W/m2 CLR
05:24 -11.3 °C -12.2 °C 34588 hPa Calm     90 % 0 mm 0.00 W/m2 CLR
05:29 -11.3 °C -12.3 °C 34588 hPa Calm     89 % 0 mm 0.00 W/m2 CLR
05:34 -11.3 °C -12.2 °C 34588 hPa Calm     90 % 0 mm 0.00 W/m2 CLR
05:39 -11.3 °C -12.2 °C 34584.6 hPa Calm     90 % 0 mm 0.00 W/m2 CLR
05:44 -11.3 °C -12.2 °C 34588 hPa Calm     90 % 0 mm 0.00 W/m2 CLR
05:49 -11.3 °C -12.2 °C 34584.6 hPa Calm     90 % 0 mm 0.00 W/m2 CLR
05:54 -11.3 °C -12.2 °C 34588 hPa Calm     90 % 0 mm 0.00 W/m2 CLR
05:59 -11.3 °C -12.2 °C 34584.6 hPa Calm     90 % 0 mm 0.00 W/m2 CLR
06:04 -11.3 °C -12.2 °C 34588 hPa Calm     90 % 0 mm 0.00 W/m2 CLR
06:09 -11.3 °C -12.2 °C 34584.6 hPa Calm     90 % 0 mm 0.00 W/m2 CLR
06:14 -11.3 °C -12.2 °C 34584.6 hPa Calm     90 % 0 mm 0.00 W/m2 CLR
06:19 -11.3 °C -12.2 °C 34584.6 hPa Calm     90 % 0 mm 0.00 W/m2 CLR
06:24 -11.3 °C -12.2 °C 34584.6 hPa Calm     90 % 0 mm 0.00 W/m2 CLR
06:29 -11.3 °C -12.2 °C 34584.6 hPa Calm     90 % 0 mm 0.00 W/m2 CLR
06:34 -11 °C -11.9 °C 34584.6 hPa Calm     90 % 0 mm 0.00 W/m2 CLR
06:39 -11 °C -11.9 °C 34581.2 hPa Calm     90 % 0 mm 0.00 W/m2 CLR
06:44 -11 °C -11.9 °C 34581.2 hPa Calm     90 % 0 mm 0.00 W/m2 CLR
06:49 -11.3 °C -12.2 °C 34581.2 hPa Calm     90 % 0 mm 0.00 W/m2 CLR
06:54 -11.3 °C -12.2 °C 34581.2 hPa Calm     90 % 0 mm 0.00 W/m2 CLR
06:59 -11.3 °C -12.2 °C 34584.6 hPa Calm     90 % 0 mm 0.00 W/m2 CLR
07:04 -11.3 °C -12.2 °C 34588 hPa Calm     90 % 0 mm 0.00 W/m2 CLR
07:09 -11.3 °C -12.1 °C 34588 hPa Calm     91 % 0 mm 0.00 W/m2 CLR
07:14 -11.3 °C -12.2 °C 34588 hPa Calm     90 % 0 mm 0.00 W/m2 CLR
07:19 -11.3 °C -12.2 °C 34584.6 hPa Calm     90 % 0 mm 0.00 W/m2 CLR
07:24 -11.3 °C -12.2 °C 34584.6 hPa Calm     90 % 0 mm 0.00 W/m2 CLR
07:29 -11.6 °C -12.4 °C 34581.2 hPa Calm     91 % 0 mm 0.00 W/m2 CLR
07:34 -11.6 °C -12.4 °C 34584.6 hPa Calm     91 % 0 mm 0.00 W/m2 CLR
07:39 -11.6 °C -12.4 °C 34588 hPa Calm     90 % 0 mm 0.00 W/m2 CLR
07:44 -11.6 °C -12.4 °C 34584.6 hPa Calm     90 % 0 mm 0.00 W/m2 CLR
07:49 -11.6 °C -12.4 °C 34588 hPa Calm     90 % 0 mm 0.00 W/m2 CLR
07:54 -11.6 °C -12.4 °C 34588 hPa Calm     90 % 0 mm 0.00 W/m2 CLR
07:59 -11.9 °C -12.7 °C 34588 hPa Calm     91 % 0 mm 0.00 W/m2 CLR
08:04 -11.6 °C -12.4 °C 34584.6 hPa Calm     91 % 0 mm 0.00 W/m2 OVC
08:09 -11.6 °C -12.4 °C 34588 hPa Calm     91 % 0 mm 5.00 W/m2 OVC
08:14 -11.6 °C -12.4 °C 34588 hPa Calm     91 % 0 mm 7.00 W/m2 BKN
08:19 -11.6 °C -12.4 °C 34588 hPa Calm     91 % 0 mm 11.00 W/m2 BKN
08:24 -11.6 °C -12.4 °C 34591.4 hPa Calm     91 % 0 mm 14.00 W/m2 BKN
08:29 -11.6 °C -12.4 °C 34591.4 hPa Calm     91 % 0 mm 16.00 W/m2 BKN
08:34 -11.6 °C -12.4 °C 34591.4 hPa Calm     91 % 0 mm 21.00 W/m2 BKN
08:39 -11.6 °C -12.4 °C 34591.4 hPa Calm     91 % 0 mm 32.00 W/m2 BKN
08:44 -11.6 °C -12.4 °C 34594.8 hPa Calm     91 % 0 mm 40.00 W/m2 BKN
08:49 -11.6 °C -12.4 °C 34594.8 hPa Calm     91 % 0 mm 47.00 W/m2 BKN
08:54 -11.6 °C -12.4 °C 34594.8 hPa Calm     91 % 0 mm 63.00 W/m2 SCT
08:59 -11.6 °C -12.4 °C 34598.1 hPa Calm     91 % 0 mm 70.00 W/m2 FEW
09:04 -11.3 °C -12.2 °C 34598.1 hPa Calm     90 % 0 mm 93.00 W/m2 CLR
09:09 -11.3 °C -12.2 °C 34598.1 hPa Calm     90 % 0 mm 107.00 W/m2 CLR
09:14 -11.3 °C -12.2 °C 34598.1 hPa Calm     90 % 0 mm 125.00 W/m2 CLR
09:19 -11.3 °C -12.2 °C 34598.1 hPa Calm     90 % 0 mm 141.00 W/m2 CLR
09:24 -11.3 °C -12.3 °C 34601.5 hPa Calm     89 % 0 mm 130.00 W/m2 CLR
09:29 -11 °C -12 °C 34601.5 hPa Calm     89 % 0 mm 160.00 W/m2 CLR
09:34 -10.7 °C -11.7 °C 34601.5 hPa Calm     89 % 0 mm 132.00 W/m2 CLR
09:39 -10.7 °C -11.8 °C 34604.9 hPa Calm     88 % 0 mm 216.00 W/m2 CLR
09:44 -10.4 °C -11.4 °C 34601.5 hPa Calm     88 % 0 mm 232.00 W/m2 CLR
09:49 -10.4 °C -11.6 °C 34598.1 hPa Calm     86 % 0 mm 248.00 W/m2 CLR
09:54 -10.1 °C -11.6 °C 34594.8 hPa Calm     84 % 0 mm 262.00 W/m2 CLR
09:59 -10.1 °C -11.7 °C 34594.8 hPa Calm     82 % 0 mm 279.00 W/m2 CLR
10:04 -9.8 °C -11.6 °C 34594.8 hPa Calm     81 % 0 mm 292.00 W/m2 CLR
10:09 -9.8 °C -11.8 °C 34594.8 hPa Calm     79 % 0 mm 306.00 W/m2 CLR
10:14 -9.8 °C -11.8 °C 34598.1 hPa Calm     78 % 0 mm 308.00 W/m2 CLR
10:19 -9.4 °C -11.7 °C 34594.8 hPa Calm     77 % 0 mm 336.00 W/m2 CLR
10:24 -9.4 °C -11.8 °C 34594.8 hPa Calm     76 % 0 mm 295.00 W/m2 CLR
10:29 -9.1 °C -11.6 °C 34594.8 hPa Calm     75 % 0 mm 353.00 W/m2 CLR
10:34 -8.8 °C -11.4 °C 34591.4 hPa Calm     74 % 0 mm 376.00 W/m2 CLR
10:39 -8.8 °C -11.5 °C 34594.8 hPa Calm     73 % 0 mm 388.00 W/m2 CLR
10:44 -8.5 °C -11.2 °C 34591.4 hPa Calm     73 % 0 mm 403.00 W/m2 CLR
10:49 -8.2 °C -11.1 °C 34594.8 hPa Calm     72 % 0 mm 417.00 W/m2 CLR
10:54 -8.2 °C -11.1 °C 34591.4 hPa Calm     72 % 0 mm 436.00 W/m2 CLR
10:59 -7.9 °C -11 °C 34591.4 hPa Calm     70 % 0 mm 455.00 W/m2 CLR
11:04 -7.6 °C -10.7 °C 34588 hPa Calm     70 % 0 mm 480.00 W/m2 CLR
11:09 -7.3 °C -10.5 °C 34584.6 hPa Calm     69 % 0 mm 364.00 W/m2 CLR
11:14 -7.3 °C -10.5 °C 34584.6 hPa Calm     69 % 0 mm 243.00 W/m2 CLR
11:19 -7 °C -10.2 °C 34584.6 hPa Calm     69 % 0 mm 394.00 W/m2 CLR
11:24 -7 °C -10.2 °C 34581.2 hPa Calm     69 % 0 mm 427.00 W/m2 CLR
11:29 -6.7 °C -10.3 °C 34581.2 hPa Calm     66 % 0 mm 427.00 W/m2 CLR
11:34 -6.7 °C -10.3 °C 34574.4 hPa Calm     66 % 0 mm 527.00 W/m2 CLR
11:39 -6.3 °C -10.2 °C 34574.4 hPa Calm     65 % 0 mm 527.00 W/m2 CLR
11:44 -6.1 °C -9.9 °C 34574.4 hPa Calm     64 % 0 mm 534.00 W/m2 CLR
11:49 -6.1 °C -9.9 °C 34571.1 hPa Calm     64 % 0 mm 543.00 W/m2 CLR
11:54 -5.7 °C -9.6 °C 34567.7 hPa Calm     65 % 0 mm 550.00 W/m2 CLR
11:59 -5.4 °C -9.1 °C 34567.7 hPa Calm     66 % 0 mm 559.00 W/m2 CLR
12:04 -5.1 °C -8.8 °C 34564.3 hPa Calm     66 % 0 mm 570.00 W/m2 CLR
12:09 -4.8 °C -8.7 °C 34564.3 hPa East 9 km/h 1.3 km/h 65 % 0 mm 591.00 W/m2 CLR
12:14 -4.8 °C -8.7 °C 34560.9 hPa Calm     65 % 0 mm 647.00 W/m2 CLR
12:19 -4.5 °C -8.5 °C 34557.5 hPa Calm     64 % 0 mm 726.00 W/m2 CLR
12:24 -4.2 °C -8.5 °C 34557.5 hPa Calm     62 % 0 mm 782.00 W/m2 CLR
12:29 -4.2 °C -8.7 °C 34554.1 hPa Calm     61 % 0 mm 425.00 W/m2 CLR
12:34 -4.2 °C -8.8 °C 34550.7 hPa Calm     60 % 0 mm 687.00 W/m2 CLR
12:39 -3.9 °C -8.7 °C 34550.7 hPa ESE 20.9 km/h 10.6 km/h 59 % 0 mm 707.00 W/m2 CLR
12:44 -3.9 °C -8.7 °C 34547.4 hPa Calm     59 % 0 mm 703.00 W/m2 CLR
12:49 -3.9 °C -8.7 °C 34544 hPa Calm     59 % 0 mm 689.00 W/m2 CLR
12:54 -3.9 °C -8.9 °C 34544 hPa East 15 km/h 5 km/h 57 % 0 mm 663.00 W/m2 CLR
12:59 -3.6 °C -8.7 °C 34540.6 hPa SSE 6 km/h 1.6 km/h 57 % 0 mm 670.00 W/m2 CLR
13:04 -3.6 °C -8.8 °C 34533.8 hPa SE 3.1 km/h   56 % 0 mm 671.00 W/m2 CLR
13:09 -3.6 °C -8.7 °C 34530.4 hPa SE 12.9 km/h 6.8 km/h 57 % 0 mm 656.00 W/m2 CLR
13:14 -3.6 °C -9 °C 34527 hPa East 9 km/h 6.4 km/h 55 % 0 mm 636.00 W/m2 CLR
13:19 -3.9 °C -9.3 °C 34523.7 hPa Calm     55 % 0 mm 656.00 W/m2 CLR
13:24 -3.6 °C -9.5 °C 34520.3 hPa Calm     52 % 0 mm 647.00 W/m2 CLR
13:29 -3.3 °C -9 °C 34516.9 hPa ENE 23.8 km/h 11.1 km/h 53 % 0 mm 519.00 W/m2 CLR
13:34 -3.6 °C -9.5 °C 34513.5 hPa ENE 15 km/h 1.6 km/h 52 % 0 mm 649.00 W/m2 CLR
13:39 -3.3 °C -9.2 °C 34506.7 hPa East 10.3 km/h 2.3 km/h 52 % 0 mm 650.00 W/m2 CLR
13:44 -3.3 °C -9.2 °C 34500 hPa East 12.9 km/h 10.9 km/h 52 % 0 mm 649.00 W/m2 CLR
13:49 -3.3 °C -9.3 °C 34496.6 hPa Calm     51 % 0 mm 656.00 W/m2 CLR
13:54 -2.9 °C -8.9 °C 34493.2 hPa SSE 12.9 km/h 6.8 km/h 52 % 0 mm 656.00 W/m2 CLR
13:59 -2.9 °C -8.9 °C 34489.8 hPa East 20.9 km/h 2.1 km/h 52 % 0 mm 656.00 W/m2 CLR
14:04 -2.9 °C -9.1 °C 34486.4 hPa ESE 9 km/h 1.6 km/h 51 % 0 mm 656.00 W/m2 CLR
14:09 -2.9 °C -8.9 °C 34479.6 hPa ENE 3.1 km/h 3.7 km/h 52 % 0 mm 626.00 W/m2 CLR
14:14 -2.7 °C -9.1 °C 34476.3 hPa ENE 20.9 km/h 17.4 km/h 49 % 0 mm 649.00 W/m2 CLR
14:19 -2.7 °C -9.1 °C 34476.3 hPa SE 2.6 km/h   49 % 0 mm 649.00 W/m2 CLR
14:24 -2.7 °C -9.3 °C 34469.5 hPa East 29.8 km/h 19.2 km/h 48 % 0 mm 657.00 W/m2 CLR
14:29 -2.9 °C -9.6 °C 34462.7 hPa East 9 km/h 6.8 km/h 48 % 0 mm 670.00 W/m2 CLR
14:34 -2.9 °C -9.8 °C 34462.7 hPa East 20.9 km/h 6.8 km/h 47 % 0 mm 118.00 W/m2 CLR
14:39 -3.3 °C -9.7 °C 34459.3 hPa SSE 26.9 km/h 18.7 km/h 49 % 0 mm 156.00 W/m2 CLR
14:44 -2.9 °C -9.4 °C 34455.9 hPa East 15.6 km/h 10.9 km/h 49 % 0 mm 657.00 W/m2 CLR
14:49 -2.7 °C -8.9 °C 34452.6 hPa East 7.7 km/h 6 km/h 50 % 0 mm 642.00 W/m2 CLR
14:54 -2.7 °C -9.1 °C 34452.6 hPa SW 20.8 km/h 15 km/h 49 % 0 mm 656.00 W/m2 CLR
14:59 -2.7 °C -9.1 °C 34449.2 hPa SE 26.9 km/h 18.3 km/h 49 % 0 mm 663.00 W/m2 CLR
15:04 -2.3 °C -8.7 °C 34445.8 hPa SSE 18.2 km/h 18.2 km/h 50 % 0 mm 624.00 W/m2 CLR
15:09 -2.3 °C -8.7 °C 34442.4 hPa SE 23.8 km/h 17.1 km/h 50 % 0 mm 571.00 W/m2 CLR
15:14 -2.7 °C -8.9 °C 34439 hPa SE 29.8 km/h 18.3 km/h 50 % 0 mm 197.00 W/m2 CLR
15:19 -3.3 °C -9.3 °C 34435.6 hPa SE 29.8 km/h 24.3 km/h 51 % 0 mm 148.00 W/m2 CLR
15:24 -3.6 °C -9.5 °C 34432.2 hPa East 26.9 km/h 10.9 km/h 52 % 0 mm 165.00 W/m2 CLR
15:29 -3.6 °C -9.3 °C 34428.8 hPa SSE 15.6 km/h 14.5 km/h 53 % 0 mm 179.00 W/m2 CLR
15:34 -3.3 °C -9 °C 34425.5 hPa SSE 23.8 km/h 15.8 km/h 53 % 0 mm 183.00 W/m2 CLR
15:39 -3.3 °C -9.3 °C 34425.5 hPa SE 29.8 km/h 26.4 km/h 51 % 0 mm 285.00 W/m2 CLR
15:44 -2.9 °C -8.9 °C 34425.5 hPa SSE 38.8 km/h 27.2 km/h 52 % 0 mm 605.00 W/m2 CLR
15:49 -2.7 °C -8.6 °C 34425.5 hPa South 38.8 km/h 26.4 km/h 52 % 0 mm 225.00 W/m2 CLR
15:54 -2.7 °C -8.4 °C 34422.1 hPa South 32.8 km/h 24.8 km/h 53 % 0 mm 515.00 W/m2 CLR
15:59 -2.7 °C -8.4 °C 34422.1 hPa SSE 38.8 km/h 32.8 km/h 53 % 0 mm 410.00 W/m2 CLR
16:04 -2.7 °C -8.1 °C 34418.7 hPa SSE 41.7 km/h 33.6 km/h 55 % 0 mm 396.00 W/m2 CLR
16:09 -2.7 °C -8.1 °C 34418.7 hPa South 38.8 km/h 32.7 km/h 55 % 0 mm 443.00 W/m2 CLR
16:14 -2.9 °C -8.2 °C 34418.7 hPa SSE 41.7 km/h 29.5 km/h 56 % 0 mm 478.00 W/m2 CLR
16:19 -2.9 °C -8.1 °C 34415.3 hPa SSE 35.7 km/h 22.5 km/h 57 % 0 mm 445.00 W/m2 CLR
16:24 -2.9 °C -8.1 °C 34411.9 hPa South 41.7 km/h 35.2 km/h 57 % 0 mm 454.00 W/m2 CLR
16:29 -2.9 °C -8.2 °C 34411.9 hPa SSE 47.6 km/h 32.3 km/h 56 % 0 mm 404.00 W/m2 CLR
16:34 -2.9 °C -8.1 °C 34408.5 hPa SE 38.8 km/h 30.1 km/h 57 % 0 mm 373.00 W/m2 CLR
16:39 -3.3 °C -8.4 °C 34408.5 hPa SSE 29.8 km/h 25.9 km/h 57 % 0 mm 385.00 W/m2 CLR
16:44 -3.3 °C -8.2 °C 34405.1 hPa SSE 35.7 km/h 23.5 km/h 58 % 0 mm 373.00 W/m2 CLR
16:49 -3.3 °C -8.1 °C 34401.8 hPa South 41.7 km/h 34.1 km/h 59 % 0 mm 355.00 W/m2 CLR
16:54 -3.3 °C -7.9 °C 34401.8 hPa SSW 32.8 km/h 28 km/h 60 % 0 mm 376.00 W/m2 CLR
16:59 -3.3 °C -8.1 °C 34398.4 hPa SSE 35.7 km/h 26.7 km/h 59 % 0 mm 209.00 W/m2 CLR
17:04 -3.6 °C -8.2 °C 34401.8 hPa SSE 41.7 km/h 32.8 km/h 60 % 0 mm 257.00 W/m2 CLR
17:09 -3.6 °C -8.1 °C 34398.4 hPa SSE 29.8 km/h 21.6 km/h 61 % 0 mm 274.00 W/m2 CLR
17:14 -3.6 °C -8.2 °C 34395 hPa SE 32.8 km/h 21.6 km/h 60 % 0 mm 250.00 W/m2 CLR
17:19 -3.9 °C -8.5 °C 34391.6 hPa SE 41.4 km/h 31.9 km/h 60 % 0 mm 204.00 W/m2 CLR
17:24 -3.9 °C -8.4 °C 34388.2 hPa South 38.8 km/h 29.3 km/h 61 % 0 mm 199.00 W/m2 CLR
17:29 -3.9 °C -8.5 °C 34388.2 hPa SSE 32.8 km/h 23.8 km/h 60 % 0 mm 188.00 W/m2 CLR
17:34 -3.9 °C -8.4 °C 34388.2 hPa South 35.7 km/h 26.9 km/h 61 % 0 mm 190.00 W/m2 CLR
17:39 -4.2 °C -8.7 °C 34388.2 hPa SSE 36.2 km/h 24.3 km/h 61 % 0 mm 141.00 W/m2 CLR
17:44 -4.2 °C -8.8 °C 34388.2 hPa South 38.8 km/h 30.6 km/h 60 % 0 mm 137.00 W/m2 CLR
17:49 -4.2 °C -8.7 °C 34388.2 hPa South 41.7 km/h 34 km/h 61 % 0 mm 149.00 W/m2 CLR
17:54 -4.2 °C -8.7 °C 34388.2 hPa South 41.7 km/h 27.7 km/h 61 % 0 mm 148.00 W/m2 CLR
17:59 -4.2 °C -8.7 °C 34391.6 hPa South 47.6 km/h 36 km/h 61 % 0 mm 104.00 W/m2 CLR
18:04 -4.2 °C -8.7 °C 34388.2 hPa South 35.7 km/h 30.1 km/h 61 % 0 mm 97.00 W/m2 CLR
18:09 -4.5 °C -8.9 °C 34384.8 hPa South 31.1 km/h 22.9 km/h 61 % 0 mm 88.00 W/m2 CLR
18:14 -4.5 °C -8.9 °C 34388.2 hPa SSE 35.7 km/h 26.2 km/h 61 % 0 mm 83.00 W/m2 CLR
18:19 -4.5 °C -8.9 °C 34384.8 hPa SSW 50.7 km/h 35.4 km/h 61 % 0 mm 70.00 W/m2 FEW
18:24 -4.8 °C -9.2 °C 34388.2 hPa South 41.7 km/h 32.8 km/h 61 % 0 mm 65.00 W/m2 FEW
18:29 -4.8 °C -9.2 °C 34384.8 hPa SSE 38.8 km/h 28.2 km/h 61 % 0 mm 58.00 W/m2 SCT
18:34 -4.8 °C -9.2 °C 34384.8 hPa SSE 31.1 km/h 23.5 km/h 61 % 0 mm 51.00 W/m2 SCT
18:39 -5.1 °C -9.5 °C 34384.8 hPa South 29.8 km/h 24.3 km/h 61 % 0 mm 46.00 W/m2 SCT
18:44 -5.1 °C -9.5 °C 34384.8 hPa South 32.8 km/h 24.1 km/h 61 % 0 mm 49.00 W/m2 SCT
18:49 -5.1 °C -9.5 °C 34388.2 hPa South 38.8 km/h 23.5 km/h 61 % 0 mm 46.00 W/m2 BKN
18:54 -5.1 °C -9.5 °C 34384.8 hPa South 29.8 km/h 22.2 km/h 61 % 0 mm 35.00 W/m2 BKN
18:59 -5.1 °C -9.4 °C 34384.8 hPa South 29.8 km/h 25.4 km/h 62 % 0 mm 25.00 W/m2 BKN
19:04 -5.4 °C -9.7 °C 34381.4 hPa SSW 25.9 km/h 17.1 km/h 62 % 0 mm 16.00 W/m2 BKN
19:09 -5.4 °C -9.7 °C 34384.8 hPa SSW 25.9 km/h 20.8 km/h 62 % 0 mm 9.00 W/m2 BKN
19:14 -5.4 °C -9.7 °C 34388.2 hPa South 20.9 km/h 15.3 km/h 62 % 0 mm 5.00 W/m2 OVC
19:19 -5.7 °C -9.9 °C 34384.8 hPa South 26.9 km/h 20.3 km/h 62 % 0 mm 0.00 W/m2 OVC
19:24 -5.7 °C -9.8 °C 34388.2 hPa SSW 20.9 km/h 15.6 km/h 63 % 0 mm 0.00 W/m2 OVC
19:29 -5.7 °C -9.8 °C 34388.2 hPa South 23.8 km/h 20 km/h 63 % 0 mm 0.00 W/m2 OVC
19:34 -6.1 °C -10.1 °C 34384.8 hPa South 26.9 km/h 18.7 km/h 63 % 0 mm 0.00 W/m2 CLR
19:39 -6.1 °C -9.9 °C 34381.4 hPa South 32.8 km/h 28.5 km/h 64 % 0 mm 0.00 W/m2 CLR
19:44 -6.1 °C -9.8 °C 34381.4 hPa SSW 29.8 km/h 23.3 km/h 65 % 0 mm 0.00 W/m2 CLR
19:49 -6.1 °C -9.8 °C 34381.4 hPa South 33.6 km/h 27.7 km/h 65 % 0 mm 0.00 W/m2 CLR
19:54 -6.1 °C -9.7 °C 34381.4 hPa South 38.8 km/h 29.8 km/h 66 % 0 mm 0.00 W/m2 CLR
19:59 -6.3 °C -10 °C 34381.4 hPa South 38.8 km/h 31.5 km/h 66 % 0 mm 0.00 W/m2 CLR
20:04 -6.3 °C -10 °C 34384.8 hPa South 32.8 km/h 31.4 km/h 66 % 0 mm 0.00 W/m2 CLR
20:09 -6.3 °C -10 °C 34384.8 hPa SSW 25.9 km/h 18.8 km/h 66 % 0 mm 0.00 W/m2 CLR
20:14 -6.3 °C -10 °C 34384.8 hPa South 29.8 km/h 21.6 km/h 66 % 0 mm 0.00 W/m2 CLR
20:19 -6.7 °C -10.3 °C 34384.8 hPa South 32.8 km/h 22.5 km/h 66 % 0 mm 0.00 W/m2 CLR
20:24 -6.7 °C -10.2 °C 34384.8 hPa South 29.8 km/h 22.2 km/h 67 % 0 mm 0.00 W/m2 CLR
20:29 -6.7 °C -10.2 °C 34384.8 hPa South 23.8 km/h 16.9 km/h 67 % 0 mm 0.00 W/m2 CLR
20:34 -7 °C -10.4 °C 34384.8 hPa South 17.9 km/h 10.6 km/h 67 % 0 mm 0.00 W/m2 CLR
20:39 -7 °C -10.4 °C 34384.8 hPa South 17.9 km/h 2.1 km/h 67 % 0 mm 0.00 W/m2 CLR
20:44 -7 °C -10.3 °C 34381.4 hPa South 18.2 km/h 7.6 km/h 68 % 0 mm 0.00 W/m2 CLR
20:49 -7.3 °C -10.8 °C 34384.8 hPa Calm     67 % 0 mm 0.00 W/m2 CLR
20:54 -7.3 °C -10.7 °C 34381.4 hPa SE 5.1 km/h 3.1 km/h 68 % 0 mm 0.00 W/m2 CLR
20:59 -7.3 °C -10.8 °C 34378.1 hPa South 18.2 km/h 12.2 km/h 67 % 0 mm 0.00 W/m2 CLR
21:04 -7.6 °C -11.1 °C 34378.1 hPa SSE 12.9 km/h 4.7 km/h 67 % 0 mm 0.00 W/m2 CLR
21:09 -7.6 °C -11.1 °C 34378.1 hPa Calm     67 % 0 mm 0.00 W/m2 CLR
21:14 -7.6 °C -11.1 °C 34378.1 hPa Calm     67 % 0 mm 0.00 W/m2 CLR
21:19 -7.9 °C -11.3 °C 34378.1 hPa Calm     67 % 0 mm 0.00 W/m2 CLR
21:24 -7.9 °C -11.3 °C 34378.1 hPa Calm     67 % 0 mm 0.00 W/m2 CLR
21:29 -7.9 °C -11.3 °C 34381.4 hPa Calm     67 % 0 mm 0.00 W/m2 CLR
21:34 -8.2 °C -11.5 °C 34378.1 hPa Calm     68 % 0 mm 0.00 W/m2 CLR
21:39 -8.2 °C -11.5 °C 34381.4 hPa Calm     68 % 0 mm 0.00 W/m2 CLR
21:44 -8.2 °C -11.5 °C 34378.1 hPa Calm     68 % 0 mm 0.00 W/m2 CLR
21:49 -8.5 °C -11.8 °C 34374.7 hPa Calm     68 % 0 mm 0.00 W/m2 CLR
21:54 -8.5 °C -11.7 °C 34374.7 hPa Calm     69 % 0 mm 0.00 W/m2 CLR
21:59 -8.5 °C -11.7 °C 34378.1 hPa Calm     69 % 0 mm 0.00 W/m2 CLR
22:04 -8.8 °C -12 °C 34378.1 hPa Calm     69 % 0 mm 0.00 W/m2 CLR
22:09 -8.8 °C -12 °C 34378.1 hPa Calm     69 % 0 mm 0.00 W/m2 CLR
22:14 -8.8 °C -12.1 °C 34374.7 hPa Calm     68 % 0 mm 0.00 W/m2 CLR
22:19 -8.8 °C -12.1 °C 34378.1 hPa Calm     68 % 0 mm 0.00 W/m2 CLR
22:24 -8.8 °C -12.1 °C 34378.1 hPa Calm     68 % 0 mm 0.00 W/m2 CLR
22:29 -8.8 °C -12.1 °C 34374.7 hPa South 10.3 km/h 4.3 km/h 68 % 0 mm 0.00 W/m2 CLR
22:34 -9.1 °C -12.4 °C 34374.7 hPa South 12.9 km/h 9.7 km/h 68 % 0 mm 0.00 W/m2 CLR
22:39 -9.1 °C -12.6 °C 34374.7 hPa South 23.8 km/h 15.6 km/h 67 % 0 mm 0.00 W/m2 CLR
22:44 -9.1 °C -12.6 °C 34374.7 hPa SSW 18.2 km/h 7.6 km/h 67 % 0 mm 0.00 W/m2 CLR
22:49 -9.1 °C -12.6 °C 34371.3 hPa SSW 17.9 km/h 9.8 km/h 67 % 0 mm 0.00 W/m2 CLR
22:54 -9.1 °C -12.6 °C 34367.9 hPa Calm     67 % 0 mm 0.00 W/m2 CLR
22:59 -9.1 °C -12.6 °C 34371.3 hPa South 11.9 km/h 3.4 km/h 67 % 0 mm 0.00 W/m2 CLR
23:04 -9.1 °C -12.6 °C 34367.9 hPa SSE 20.9 km/h 12.7 km/h 67 % 0 mm 0.00 W/m2 CLR
23:09 -9.4 °C -12.8 °C 34364.5 hPa South 11.9 km/h 3.4 km/h 67 % 0 mm 0.00 W/m2 CLR
23:14 -9.4 °C -12.8 °C 34361.1 hPa South 17.9 km/h 7.2 km/h 67 % 0 mm 0.00 W/m2 CLR
23:19 -9.4 °C -12.8 °C 34361.1 hPa SSE 3.1 km/h 1.8 km/h 67 % 0 mm 0.00 W/m2 CLR
23:24 -9.4 °C -12.7 °C 34361.1 hPa Calm     68 % 0 mm 0.00 W/m2 CLR
23:29 -9.8 °C -13 °C 34361.1 hPa Calm     68 % 0 mm 0.00 W/m2 CLR
23:34 -9.8 °C -13 °C 34361.1 hPa Calm     68 % 0 mm 0.00 W/m2 CLR
23:39 -9.8 °C -13 °C 34361.1 hPa Calm     68 % 0 mm 0.00 W/m2 CLR
23:44 -10.1 °C -13.3 °C 34357.7 hPa Calm     68 % 0 mm 0.00 W/m2 CLR
23:49 -10.1 °C -13.3 °C 34361.1 hPa Calm     68 % 0 mm 0.00 W/m2 CLR
23:54 -10.1 °C -13.3 °C 34361.1 hPa Calm     68 % 0 mm 0.00 W/m2 CLR
23:59 -10.1 °C -13.3 °C 34361.1 hPa Calm     68 % 0 mm 0.00 W/m2 CLR
Lo Temps de Massalio
Compliments of Weather Underground - 1.25 mb